Location: Newark
(50.0306°N, 2.3272°E)
Time: 01:29:29
(UTC+00:00)

Vanguard 1 - Pass Details

Date: 12 December 2019
Orbit: 651 x 3832 km, 34.2° (Epoch: 23 January)

Event Time Altitude Azimuth Distance (km) Brightness Sun altitude
Exits shadow 05:59:59 - 254° (WSW) 7,875 14.2 -15.0°
Reaches altitude 10° 06:05:20 10° 250° (WSW) 6,936 13.9 -14.2°
Maximum altitude 06:26:17 48° 186° (S) 3,863 13.2 -11.1°
Drops below altitude 10° 06:40:28 10° 118° (ESE) 4,852 15.3 -9.0°
Sets 06:43:40 0° 112° (ESE) 5,496 16.4 -8.5°
